Weather History for Nashua, NH

Change the Weather History Date:

Friday, March 21, 2014

  Actual Average Record
Temperature  
Mean Temperature 34 °F -  
Max Temperature 41 °F 45 °F 81 °F (2012)
Min Temperature 30 °F 25 °F 2 °F (1956)
Degree Days  
Heating Degree Days 30    
Moisture  
Dew Point 20 °F    
Average Humidity 53    
Maximum Humidity 67    
Minimum Humidity 45    
Precipitation  
Precipitation 0.00 in - - ()
Sea Level Pressure  
Sea Level Pressure 30.60 in    
Wind  
Wind Speed 10 mph (WNW)    
Max Wind Speed 16 mph    
Max Gust Speed 28 mph    
Visibility 10 miles    
Events      
Averages and records for this station are not official NWS values.
T = Trace of Precipitation, MM = Missing Value Source: NWS Daily Summary

Daily Weather History Graph

Daily Weather History Graph

Search for Another Location

Airport:

Trip Planner

Search our weather history database for the weather conditions in past years. The results will help you decide how hot, cold, wet, or windy it might be!

Date:

Astronomy

Mar. 21, 2014 Rise Set
Actual Time 6:47 AM EDT 6:59 PM EDT
Civil Twilight 6:19 AM EDT 7:27 PM EDT
Nautical Twilight 5:46 AM EDT 8:00 PM EDT
Astronomical Twilight 5:12 AM EDT 8:34 PM EDT
Moon No Moon Rise 9:30 AM EDT (3/21)
Length of Visible Light 13h 08m
Length of Day
12h 11m
Waning Gibbous, 75% of the Moon is Illuminated
Mar 21
Waning Gibbous
Mar 23
Last Quarter
Mar 30
New
Apr 7
First Quarter
Apr 15
Full

Hourly Weather History & Observations

Time (EDT) Temp. Windchill Dew Point Humidity Pressure Visibility Wind Dir Wind Speed Gust Speed Precip Events Conditions
12:51 AM 37.9 °F 30.5 °F 23.0 °F 55% 30.48 in 10.0 mi West 11.5 mph 23.0 mph N/A   Scattered Clouds
1:51 AM 36.0 °F 28.5 °F 22.1 °F 57% 30.49 in 10.0 mi West 10.4 mph 16.1 mph N/A   Clear
2:51 AM 36.0 °F 29.0 °F 22.1 °F 57% 30.49 in 10.0 mi WSW 9.2 mph - N/A   Mostly Cloudy
3:51 AM 34.9 °F 27.7 °F 22.1 °F 60% 30.50 in 10.0 mi West 9.2 mph 17.3 mph N/A   Clear
4:51 AM 34.9 °F 29.9 °F 22.1 °F 60% 30.50 in 10.0 mi West 5.8 mph - N/A   Mostly Cloudy
5:51 AM 34.9 °F 28.3 °F 21.0 °F 57% 30.51 in 10.0 mi West 8.1 mph - N/A   Mostly Cloudy
6:51 AM 34.9 °F 27.7 °F 23.0 °F 62% 30.53 in 10.0 mi West 9.2 mph - N/A   Overcast
7:51 AM 34.9 °F 29.9 °F 22.1 °F 60% 30.54 in 10.0 mi Variable 5.8 mph - N/A   Overcast
8:51 AM 36.9 °F 27.8 °F 20.1 °F 51% 30.56 in 10.0 mi WNW 15.0 mph 23.0 mph N/A   Overcast
9:51 AM 36.9 °F 30.7 °F 19.0 °F 49% 30.57 in 10.0 mi WNW 8.1 mph 20.7 mph N/A   Mostly Cloudy
10:51 AM 37.9 °F 29.6 °F 20.1 °F 49% 30.58 in 10.0 mi WNW 13.8 mph 23.0 mph N/A   Overcast
11:51 AM 37.9 °F 29.2 °F 19.0 °F 47% 30.60 in 10.0 mi WNW 15.0 mph 19.6 mph N/A   Overcast
12:51 PM 38.8 °F 31.6 °F 19.0 °F 45% 30.60 in 10.0 mi WNW 11.5 mph - N/A   Overcast
1:51 PM 39.9 °F 32.5 °F 20.1 °F 45% 30.60 in 10.0 mi West 12.7 mph 23.0 mph N/A   Overcast
2:51 PM 38.8 °F 31.2 °F 20.1 °F 47% 30.61 in 10.0 mi NW 12.7 mph 20.7 mph N/A   Overcast
3:51 PM 39.9 °F 32.5 °F 20.1 °F 45% 30.61 in 10.0 mi WNW 12.7 mph 26.5 mph N/A   Overcast
4:51 PM 38.8 °F 30.0 °F 20.1 °F 47% 30.62 in 10.0 mi NNW 16.1 mph 27.6 mph N/A   Mostly Cloudy
5:51 PM 39.9 °F 32.9 °F 20.1 °F 45% 30.65 in 10.0 mi NW 11.5 mph 23.0 mph N/A   Scattered Clouds
6:51 PM 37.9 °F 30.9 °F 18.1 °F 45% 30.69 in 10.0 mi WNW 10.4 mph 20.7 mph N/A   Partly Cloudy
7:51 PM 36.9 °F 30.1 °F 19.0 °F 49% 30.71 in 10.0 mi NW 9.2 mph 18.4 mph N/A   Clear
8:51 PM 34.9 °F 30.8 °F 19.0 °F 52% 30.74 in 10.0 mi WNW 4.6 mph - N/A   Clear
9:51 PM 32.0 °F - 20.1 °F 62% 30.75 in 10.0 mi Calm Calm - N/A   Clear
10:51 PM 30.0 °F - 20.1 °F 67% 30.77 in 10.0 mi Calm Calm - N/A   Clear
11:51 PM 31.1 °F - 20.1 °F 64% 30.78 in 10.0 mi Calm Calm - N/A   Clear